QPF
0.19 0.19 0.20 0.18 0.14 0.12 0.11 0.12 0.15 0.14 0.11 0.13 0.12 0.12 0.11 0.11 0.08 0.06 0.04 0.03 0.03 0.03 0.03 0.07 0.11 0.15 0.18 0.16 0.12 0.08 0.05 0.03 0.02 0.02 0.01 0.01 0.01 0.01 0.01 0.00 0.00 0.00 0.00
0.14 0.15 0.16 0.14 0.12 0.10 0.09 0.09 0.10 0.10 0.10 0.10 0.09 0.11 0.11 0.11 0.09 0.07 0.07 0.06 0.03 0.03 0.03 0.04 0.07 0.10 0.15 0.17 0.15 0.11 0.09 0.06 0.04 0.03 0.02 0.01 0.01 0.01 0.00 0.00 0.00 0.00 0.00
0.06 0.06 0.07 0.09 0.10 0.09 0.09 0.07 0.04 0.06 0.06 0.07 0.07 0.09 0.09 0.08 0.08 0.07 0.07 0.07 0.05 0.04 0.04 0.03 0.04 0.07 0.11 0.14 0.16 0.14 0.12 0.09 0.06 0.05 0.03 0.02 0.02 0.01 0.00 0.00 0.00 0.00 0.00
0.02 0.02 0.02 0.03 0.03 0.03 0.03 0.03 0.03 0.03 0.04 0.05 0.05 0.06 0.07 0.07 0.07 0.07 0.08 0.07 0.08 0.06 0.06 0.03 0.03 0.04 0.07 0.11 0.15 0.18 0.18 0.15 0.11 0.07 0.05 0.03 0.03 0.02 0.01 0.01 0.00 0.00 0.00
0.00 0.00 0.00 0.01 0.01 0.02 0.02 0.02 0.02 0.01 0.02 0.02 0.03 0.04 0.04 0.04 0.05 0.05 0.05 0.05 0.07 0.07 0.08 0.06 0.04 0.04 0.05 0.07 0.11 0.15 0.18 0.18 0.15 0.11 0.08 0.05 0.04 0.05 0.03 0.01 0.00 0.00 0.00
0.00 0.00 0.00 0.00 0.00 0.01 0.01 0.01 0.02 0.01 0.01 0.02 0.01 0.02 0.02 0.03 0.03 0.03 0.04 0.06 0.07 0.07 0.07 0.08 0.08 0.05 0.04 0.06 0.09 0.13 0.16 0.19 0.17 0.14 0.11 0.08 0.07 0.05 0.04 0.02 0.01 0.01 0.00
0.00 0.00 0.00 0.00 0.00 0.00 0.00 0.01 0.01 0.01 0.02 0.02 0.02 0.01 0.01 0.01 0.02 0.04 0.05 0.06 0.07 0.08 0.09 0.10 0.10 0.08 0.05 0.04 0.05 0.08 0.13 0.17 0.17 0.16 0.15 0.12 0.10 0.07 0.04 0.04 0.03 0.01 0.01
0.00 0.00 0.00 0.00 0.00 0.00 0.00 0.00 0.00 0.00 0.01 0.01 0.01 0.02 0.01 0.01 0.02 0.02 0.03 0.05 0.06 0.09 0.10 0.10 0.11 0.11 0.08 0.08 0.04 0.05 0.09 0.15 0.17 0.16 0.16 0.15 0.12 0.08 0.06 0.05 0.04 0.03 0.02
0.00 0.00 0.00 0.00 0.00 0.00 0.00 0.00 0.00 0.00 0.00 0.01 0.01 0.01 0.02 0.02 0.02 0.02 0.03 0.05 0.07 0.10 0.11 0.12 0.13 0.13 0.12 0.11 0.09 0.07 0.08 0.12 0.17 0.19 0.18 0.16 0.13 0.10 0.06 0.05 0.05 0.04 0.03
0.00 0.00 0.00 0.00 0.00 0.00 0.00 0.00 0.00 0.01 0.01 0.01 0.01 0.01 0.01 0.02 0.02 0.02 0.03 0.04 0.05 0.07 0.10 0.10 0.11 0.13 0.13 0.13 0.11 0.08 0.07 0.09 0.13 0.19 0.20 0.19 0.15 0.10 0.07 0.05 0.05 0.05 0.04
0.00 0.00 0.00 0.00 0.00 0.00 0.00 0.01 0.01 0.01 0.01 0.01 0.00 0.00 0.01 0.01 0.02 0.02 0.02 0.03 0.03 0.04 0.07 0.09 0.10 0.10 0.11 0.13 0.13 0.10 0.08 0.07 0.08 0.12 0.16 0.18 0.18 0.15 0.10 0.07 0.07 0.06 0.05
0.00 0.00 0.00 0.00 0.00 0.00 0.00 0.00 0.01 0.01 0.01 0.01 0.01 0.00 0.01 0.01 0.01 0.01 0.01 0.01 0.02 0.03 0.05 0.08 0.10 0.11 0.12 0.13 0.12 0.11 0.10 0.08 0.08 0.08 0.09 0.12 0.14 0.15 0.14 0.11 0.10 0.08 0.06
0.00 0.00 0.00 0.00 0.00 0.00 0.00 0.00 0.00 0.00 0.01 0.01 0.01 0.01 0.01 0.01 0.01 0.01 0.01 0.01 0.01 0.02 0.05 0.09 0.12 0.14 0.14 0.16 0.15 0.14 0.11 0.09 0.08 0.07 0.07 0.08 0.09 0.10 0.12 0.12 0.12 0.11 0.10
0.00 0.00 0.00 0.00 0.00 0.00 0.00 0.00 0.00 0.00 0.00 0.01 0.00 0.01 0.01 0.00 0.00 0.01 0.01 0.01 0.01 0.02 0.03 0.07 0.13 0.15 0.15 0.16 0.17 0.18 0.14 0.11 0.07 0.07 0.07 0.07 0.07 0.06 0.07 0.08 0.08 0.08 0.08
0.00 0.00 0.00 0.00 0.00 0.00 0.00 0.00 0.00 0.00 0.01 0.01 0.00 0.01 0.01 0.00 0.01 0.01 0.01 0.01 0.01 0.01 0.03 0.05 0.11 0.13 0.12 0.15 0.17 0.15 0.15 0.14 0.10 0.08 0.07 0.06 0.07 0.06 0.06 0.05 0.05 0.04 0.04
0.00 0.00 0.00 0.00 0.00 0.00 0.00 0.00 0.00 0.00 0.01 0.01 0.01 0.01 0.01 0.00 0.00 0.00 0.01 0.01 0.01 0.01 0.02 0.04 0.06 0.07 0.08 0.11 0.16 0.15 0.15 0.17 0.14 0.10 0.08 0.07 0.07 0.07 0.06 0.06 0.06 0.05 0.03
0.00 0.00 0.00 0.00 0.00 0.00 0.00 0.01 0.00 0.00 0.01 0.01 0.01 0.01 0.01 0.01 0.01 0.00 0.01 0.01 0.01 0.02 0.01 0.03 0.04 0.05 0.05 0.07 0.11 0.13 0.14 0.16 0.16 0.14 0.10 0.09 0.08 0.07 0.06 0.06 0.06 0.05 0.04
0.00 0.00 0.00 0.00 0.00 0.00 0.00 0.00 0.00 0.00 0.01 0.01 0.01 0.01 0.01 0.01 0.01 0.01 0.01 0.01 0.01 0.02 0.02 0.03 0.04 0.05 0.06 0.07 0.09 0.12 0.12 0.13 0.15 0.17 0.14 0.12 0.11 0.09 0.07 0.06 0.06 0.05 0.04
0.00 0.00 0.00 0.00 0.00 0.00 0.00 0.00 0.01 0.01 0.01 0.01 0.01 0.01 0.01 0.01 0.01 0.01 0.01 0.01 0.01 0.01 0.02 0.02 0.03 0.04 0.06 0.08 0.10 0.10 0.11 0.12 0.13 0.16 0.17 0.15 0.13 0.12 0.10 0.07 0.06 0.06 0.05
0.00 0.00 0.00 0.00 0.00 0.00 0.00 0.00 0.00 0.01 0.01 0.01 0.01 0.01 0.01 0.01 0.01 0.01 0.01 0.01 0.01 0.01 0.02 0.02 0.02 0.03 0.05 0.09 0.12 0.13 0.13 0.13 0.14 0.14 0.15 0.15 0.14 0.14 0.13 0.10 0.07 0.06 0.06
0.00 0.00 0.00 0.00 0.00 0.00 0.00 0.00 0.00 0.00 0.01 0.01 0.01 0.01 0.01 0.01 0.01 0.01 0.00 0.01 0.01 0.01 0.01 0.01 0.01 0.01 0.03 0.06 0.10 0.15 0.17 0.18 0.16 0.15 0.16 0.14 0.14 0.11 0.11 0.10 0.08 0.06 0.05
0.00 0.00 0.00 0.00 0.00 0.00 0.00 0.00 0.00 0.00 0.00 0.01 0.01 0.02 0.01 0.01 0.00 0.00 0.00 0.00 0.01 0.01 0.02 0.02 0.01 0.01 0.01 0.04 0.08 0.14 0.20 0.22 0.18 0.15 0.17 0.16 0.14 0.12 0.09 0.08 0.07 0.06 0.05
0.00 0.00 0.00 0.00 0.00 0.00 0.00 0.00 0.00 0.00 0.00 0.01 0.01 0.02 0.01 0.01 0.01 0.01 0.01 0.00 0.00 0.00 0.00 0.01 0.02 0.02 0.01 0.02 0.07 0.12 0.17 0.24 0.24 0.20 0.19 0.18 0.15 0.14 0.11 0.09 0.08 0.07 0.06
0.00 0.00 0.00 0.00 0.01 0.00 0.00 0.00 0.00 0.00 0.00 0.01 0.01 0.02 0.02 0.02 0.02 0.02 0.02 0.02 0.02 0.01 0.01 0.01 0.01 0.02 0.02 0.03 0.06 0.10 0.16 0.23 0.30 0.32 0.29 0.22 0.15 0.12 0.10 0.07 0.08 0.07 0.06
0.00 0.00 0.00 0.01 0.01 0.01 0.00 0.00 0.00 0.00 0.01 0.01 0.01 0.01 0.01 0.02 0.01 0.00 0.01 0.02 0.02 0.01 0.00 0.00 0.01 0.01 0.01 0.01 0.03 0.08 0.15 0.21 0.26 0.30 0.32 0.26 0.19 0.13 0.10 0.07 0.06 0.06 0.05
0.00 0.00 0.00 0.00 0.00 0.01 0.00 0.00 0.00 0.00 0.00 0.01 0.01 0.02 0.01 0.01 0.00 0.00 0.01 0.03 0.03 0.02 0.02 0.02 0.01 0.01 0.00 0.01 0.01 0.04 0.10 0.18 0.23 0.24 0.24 0.25 0.25 0.19 0.12 0.07 0.04 0.04 0.03
MSLP
1016.86 1016.73 1016.50 1016.23 1015.99 1015.83 1015.76 1015.79 1015.88 1015.99 1016.06 1016.04 1015.93 1015.75 1015.53 1015.34 1015.24 1015.27 1015.44 1015.75 1016.16 1016.62 1017.08 1017.51 1017.89 1018.22 1018.53 1018.83 1019.14 1019.49 1019.86 1020.24 1020.62 1020.99 1021.32 1021.61 1021.88 1022.14 1022.39 1022.65 1022.92 1023.20 1023.49
1016.92 1016.74 1016.48 1016.20 1015.95 1015.79 1015.72 1015.75 1015.83 1015.92 1015.96 1015.91 1015.77 1015.54 1015.28 1015.03 1014.86 1014.81 1014.90 1015.14 1015.48 1015.89 1016.33 1016.76 1017.17 1017.54 1017.90 1018.25 1018.62 1019.01 1019.42 1019.85 1020.27 1020.66 1021.03 1021.36 1021.67 1021.96 1022.24 1022.52 1022.80 1023.09 1023.38
1017.00 1016.79 1016.52 1016.24 1016.00 1015.85 1015.79 1015.81 1015.88 1015.95 1015.95 1015.87 1015.68 1015.41 1015.09 1014.77 1014.52 1014.38 1014.38 1014.52 1014.77 1015.11 1015.51 1015.92 1016.33 1016.72 1017.12 1017.51 1017.92 1018.35 1018.80 1019.26 1019.71 1020.15 1020.56 1020.95 1021.30 1021.64 1021.96 1022.28 1022.59 1022.90 1023.20
1017.07 1016.85 1016.59 1016.33 1016.12 1015.99 1015.94 1015.95 1016.00 1016.03 1015.99 1015.87 1015.63 1015.31 1014.94 1014.56 1014.24 1014.01 1013.91 1013.94 1014.10 1014.35 1014.67 1015.04 1015.42 1015.82 1016.22 1016.64 1017.07 1017.53 1018.00 1018.49 1018.98 1019.46 1019.92 1020.37 1020.79 1021.19 1021.57 1021.94 1022.29 1022.63 1022.96
1017.12 1016.92 1016.69 1016.46 1016.29 1016.17 1016.12 1016.12 1016.13 1016.11 1016.03 1015.86 1015.59 1015.23 1014.82 1014.40 1014.02 1013.72 1013.53 1013.46 1013.51 1013.67 1013.90 1014.19 1014.53 1014.89 1015.28 1015.69 1016.13 1016.59 1017.08 1017.58 1018.10 1018.63 1019.15 1019.66 1020.15 1020.63 1021.09 1021.52 1021.93 1022.31 1022.67
1017.15 1016.97 1016.78 1016.61 1016.46 1016.36 1016.31 1016.27 1016.24 1016.17 1016.04 1015.83 1015.53 1015.16 1014.73 1014.29 1013.88 1013.53 1013.27 1013.11 1013.06 1013.11 1013.25 1013.45 1013.72 1014.03 1014.37 1014.75 1015.17 1015.63 1016.11 1016.63 1017.17 1017.73 1018.30 1018.87 1019.44 1019.99 1020.53 1021.03 1021.50 1021.93 1022.32
1017.15 1017.01 1016.87 1016.74 1016.63 1016.54 1016.46 1016.39 1016.31 1016.18 1016.00 1015.76 1015.45 1015.07 1014.66 1014.23 1013.81 1013.44 1013.14 1012.91 1012.77 1012.72 1012.76 1012.87 1013.04 1013.28 1013.57 1013.90 1014.29 1014.72 1015.19 1015.70 1016.25 1016.84 1017.45 1018.07 1018.70 1019.32 1019.91 1020.48 1021.00 1021.47 1021.91
1017.13 1017.04 1016.95 1016.86 1016.77 1016.67 1016.57 1016.46 1016.32 1016.14 1015.92 1015.66 1015.35 1015.00 1014.61 1014.22 1013.83 1013.46 1013.13 1012.86 1012.64 1012.51 1012.44 1012.45 1012.54 1012.69 1012.91 1013.19 1013.53 1013.93 1014.37 1014.87 1015.42 1016.01 1016.63 1017.28 1017.95 1018.61 1019.25 1019.86 1020.42 1020.93 1021.40
1017.11 1017.05 1017.00 1016.93 1016.86 1016.76 1016.63 1016.47 1016.28 1016.06 1015.81 1015.54 1015.25 1014.93 1014.61 1014.26 1013.91 1013.57 1013.23 1012.92 1012.65 1012.43 1012.28 1012.20 1012.19 1012.27 1012.42 1012.65 1012.94 1013.29 1013.70 1014.17 1014.70 1015.27 1015.89 1016.54 1017.21 1017.88 1018.54 1019.17 1019.75 1020.29 1020.77
1017.06 1017.03 1017.00 1016.95 1016.88 1016.77 1016.61 1016.42 1016.19 1015.94 1015.68 1015.42 1015.15 1014.89 1014.62 1014.34 1014.03 1013.71 1013.38 1013.05 1012.73 1012.45 1012.22 1012.06 1011.98 1011.99 1012.08 1012.25 1012.49 1012.80 1013.17 1013.60 1014.09 1014.62 1015.20 1015.83 1016.47 1017.13 1017.78 1018.40 1018.98 1019.53 1020.02
1016.95 1016.93 1016.92 1016.89 1016.81 1016.69 1016.52 1016.30 1016.05 1015.79 1015.53 1015.29 1015.07 1014.85 1014.64 1014.41 1014.15 1013.86 1013.53 1013.18 1012.82 1012.49 1012.20 1011.97 1011.83 1011.78 1011.82 1011.95 1012.15 1012.42 1012.74 1013.12 1013.55 1014.03 1014.55 1015.12 1015.72 1016.33 1016.95 1017.55 1018.12 1018.66 1019.17
1016.75 1016.74 1016.73 1016.70 1016.63 1016.51 1016.33 1016.11 1015.86 1015.60 1015.36 1015.15 1014.96 1014.80 1014.63 1014.44 1014.22 1013.94 1013.61 1013.25 1012.86 1012.49 1012.15 1011.88 1011.70 1011.61 1011.61 1011.69 1011.85 1012.07 1012.35 1012.67 1013.03 1013.44 1013.90 1014.39 1014.92 1015.48 1016.05 1016.63 1017.19 1017.72 1018.24
1016.45 1016.43 1016.43 1016.40 1016.33 1016.21 1016.04 1015.83 1015.59 1015.36 1015.15 1014.97 1014.82 1014.69 1014.56 1014.40 1014.19 1013.92 1013.59 1013.21 1012.81 1012.41 1012.04 1011.74 1011.53 1011.41 1011.38 1011.44 1011.56 1011.73 1011.95 1012.21 1012.50 1012.83 1013.21 1013.63 1014.09 1014.59 1015.12 1015.66 1016.21 1016.75 1017.28
1016.03 1016.01 1015.99 1015.97 1015.91 1015.80 1015.65 1015.46 1015.26 1015.06 1014.88 1014.73 1014.61 1014.50 1014.39 1014.24 1014.04 1013.78 1013.44 1013.06 1012.64 1012.23 1011.86 1011.55 1011.32 1011.18 1011.13 1011.15 1011.23 1011.36 1011.52 1011.71 1011.93 1012.18 1012.48 1012.83 1013.23 1013.68 1014.17 1014.70 1015.24 1015.79 1016.35
1015.52 1015.49 1015.47 1015.44 1015.40 1015.31 1015.19 1015.03 1014.86 1014.69 1014.54 1014.41 1014.31 1014.21 1014.10 1013.96 1013.76 1013.50 1013.17 1012.79 1012.38 1011.98 1011.61 1011.30 1011.06 1010.92 1010.84 1010.83 1010.87 1010.95 1011.05 1011.17 1011.32 1011.50 1011.73 1012.01 1012.36 1012.77 1013.24 1013.75 1014.30 1014.88 1015.46
1014.96 1014.92 1014.90 1014.88 1014.84 1014.78 1014.67 1014.55 1014.40 1014.26 1014.13 1014.01 1013.91 1013.82 1013.71 1013.56 1013.36 1013.11 1012.79 1012.43 1012.04 1011.66 1011.31 1011.02 1010.79 1010.64 1010.55 1010.51 1010.50 1010.53 1010.56 1010.62 1010.70 1010.82 1010.98 1011.22 1011.52 1011.90 1012.35 1012.86 1013.43 1014.02 1014.64
1014.43 1014.38 1014.35 1014.33 1014.30 1014.24 1014.16 1014.05 1013.92 1013.78 1013.65 1013.54 1013.43 1013.33 1013.21 1013.06 1012.87 1012.63 1012.34 1012.02 1011.67 1011.33 1011.02 1010.75 1010.54 1010.38 1010.27 1010.20 1010.15 1010.12 1010.10 1010.09 1010.11 1010.18 1010.30 1010.49 1010.76 1011.11 1011.55 1012.06 1012.62 1013.24 1013.87
1013.96 1013.90 1013.87 1013.85 1013.82 1013.76 1013.67 1013.56 1013.43 1013.28 1013.14 1013.01 1012.88 1012.77 1012.64 1012.50 1012.33 1012.12 1011.87 1011.59 1011.30 1011.02 1010.75 1010.51 1010.31 1010.15 1010.03 1009.92 1009.84 1009.76 1009.69 1009.63 1009.61 1009.63 1009.71 1009.86 1010.10 1010.43 1010.85 1011.34 1011.91 1012.52 1013.17
1013.58 1013.52 1013.48 1013.45 1013.41 1013.34 1013.23 1013.10 1012.94 1012.77 1012.60 1012.44 1012.30 1012.16 1012.04 1011.90 1011.76 1011.59 1011.40 1011.18 1010.95 1010.72 1010.50 1010.30 1010.11 1009.95 1009.81 1009.69 1009.57 1009.45 1009.35 1009.26 1009.21 1009.20 1009.25 1009.38 1009.59 1009.89 1010.28 1010.75 1011.29 1011.88 1012.51
1013.30 1013.24 1013.19 1013.14 1013.07 1012.97 1012.83 1012.66 1012.46 1012.25 1012.04 1011.85 1011.68 1011.54 1011.41 1011.30 1011.19 1011.07 1010.94 1010.79 1010.62 1010.44 1010.27 1010.09 1009.92 1009.76 1009.61 1009.47 1009.33 1009.20 1009.08 1008.99 1008.92 1008.91 1008.95 1009.06 1009.25 1009.51 1009.86 1010.29 1010.79 1011.34 1011.94
1013.09 1013.02 1012.95 1012.87 1012.77 1012.62 1012.44 1012.22 1011.97 1011.71 1011.47 1011.24 1011.06 1010.91 1010.79 1010.71 1010.64 1010.57 1010.49 1010.40 1010.29 1010.16 1010.01 1009.86 1009.70 1009.54 1009.38 1009.23 1009.10 1008.97 1008.87 1008.79 1008.75 1008.75 1008.80 1008.91 1009.08 1009.32 1009.62 1010.00 1010.44 1010.93 1011.49
1012.90 1012.81 1012.72 1012.60 1012.45 1012.26 1012.02 1011.75 1011.45 1011.15 1010.87 1010.62 1010.42 1010.28 1010.18 1010.13 1010.10 1010.08 1010.05 1010.01 1009.94 1009.84 1009.71 1009.57 1009.41 1009.25 1009.09 1008.95 1008.83 1008.74 1008.67 1008.64 1008.65 1008.69 1008.78 1008.90 1009.07 1009.29 1009.56 1009.88 1010.26 1010.70 1011.20
1012.66 1012.55 1012.43 1012.27 1012.08 1011.83 1011.55 1011.22 1010.89 1010.55 1010.25 1009.99 1009.79 1009.66 1009.59 1009.57 1009.58 1009.60 1009.61 1009.60 1009.55 1009.47 1009.34 1009.20 1009.03 1008.87 1008.72 1008.60 1008.51 1008.46 1008.46 1008.50 1008.58 1008.70 1008.84 1009.01 1009.21 1009.42 1009.67 1009.96 1010.28 1010.66 1011.10
1012.35 1012.21 1012.05 1011.85 1011.61 1011.33 1011.00 1010.64 1010.28 1009.93 1009.62 1009.37 1009.19 1009.07 1009.03 1009.03 1009.07 1009.12 1009.15 1009.15 1009.11 1009.03 1008.90 1008.74 1008.56 1008.39 1008.25 1008.15 1008.10 1008.12 1008.19 1008.33 1008.50 1008.71 1008.94 1009.18 1009.42 1009.66 1009.91 1010.18 1010.48 1010.82 1011.21
1011.94 1011.77 1011.57 1011.33 1011.06 1010.74 1010.40 1010.03 1009.66 1009.32 1009.02 1008.78 1008.62 1008.53 1008.50 1008.53 1008.59 1008.64 1008.68 1008.68 1008.63 1008.53 1008.38 1008.20 1008.01 1007.83 1007.70 1007.62 1007.62 1007.70 1007.86 1008.08 1008.36 1008.68 1009.00 1009.33 1009.64 1009.94 1010.22 1010.50 1010.80 1011.12 1011.49
1011.44 1011.23 1011.00 1010.74 1010.45 1010.13 1009.78 1009.42 1009.07 1008.74 1008.47 1008.25 1008.11 1008.04 1008.02 1008.06 1008.12 1008.17 1008.20 1008.18 1008.11 1007.99 1007.82 1007.62 1007.41 1007.23 1007.10 1007.04 1007.08 1007.21 1007.44 1007.75 1008.13 1008.54 1008.97 1009.39 1009.79 1010.16 1010.50 1010.82 1011.14 1011.47 1011.83
Thickness
5726 5724 5722 5722 5724 5724 5724 5724 5725 5725 5726 5727 5728 5730 5730 5730 5731 5731 5732 5728 5726 5725 5724 5725 5725 5725 5725 5725 5724 5724 5724 5724 5723 5723 5723 5723 5722 5722 5721 5720 5719 5718 5718
5719 5719 5719 5718 5718 5718 5718 5718 5720 5720 5722 5724 5725 5726 5727 5728 5728 5728 5728 5728 5726 5725 5724 5724 5724 5724 5724 5724 5725 5724 5724 5723 5723 5723 5722 5722 5722 5721 5721 5720 5719 5718 5717
5713 5713 5714 5713 5713 5712 5711 5713 5714 5716 5717 5720 5721 5722 5723 5724 5726 5726 5726 5727 5727 5725 5724 5723 5723 5723 5724 5724 5724 5724 5724 5723 5723 5723 5722 5721 5721 5721 5720 5720 5719 5718 5717
5706 5705 5707 5708 5705 5706 5707 5707 5709 5710 5711 5713 5715 5717 5719 5721 5722 5723 5724 5725 5726 5727 5726 5724 5723 5723 5723 5723 5724 5724 5724 5724 5723 5723 5722 5721 5721 5720 5720 5719 5719 5718 5717
5699 5700 5700 5700 5698 5700 5701 5702 5704 5703 5704 5705 5708 5712 5715 5717 5719 5721 5723 5724 5724 5724 5725 5725 5723 5722 5722 5723 5723 5724 5724 5723 5723 5723 5722 5722 5721 5720 5720 5719 5718 5718 5717
5693 5692 5694 5693 5692 5694 5694 5694 5693 5694 5695 5698 5702 5707 5710 5714 5717 5719 5720 5722 5722 5723 5724 5725 5723 5723 5722 5723 5723 5724 5724 5724 5723 5723 5723 5722 5721 5720 5720 5719 5718 5718 5717
5686 5685 5686 5687 5685 5687 5686 5687 5688 5690 5691 5693 5694 5699 5706 5712 5715 5715 5716 5718 5720 5721 5721 5722 5722 5723 5724 5722 5722 5723 5723 5723 5723 5723 5723 5723 5722 5721 5720 5719 5719 5718 5717
5680 5683 5680 5680 5682 5680 5680 5680 5680 5682 5686 5688 5686 5688 5694 5702 5706 5712 5712 5712 5713 5715 5717 5718 5719 5720 5721 5723 5724 5722 5722 5723 5723 5723 5723 5723 5722 5721 5720 5720 5719 5718 5718
5677 5675 5674 5674 5674 5675 5678 5675 5674 5674 5676 5680 5681 5679 5680 5686 5691 5701 5703 5704 5705 5706 5709 5712 5714 5716 5717 5718 5721 5721 5721 5722 5722 5723 5723 5722 5722 5722 5721 5720 5719 5719 5718
5673 5672 5670 5669 5669 5670 5670 5669 5672 5669 5667 5671 5674 5674 5673 5675 5674 5683 5692 5697 5698 5699 5702 5706 5709 5711 5712 5714 5716 5719 5719 5720 5721 5721 5722 5722 5722 5721 5720 5720 5719 5719 5719
5671 5669 5666 5665 5664 5664 5664 5661 5661 5661 5663 5663 5665 5667 5667 5668 5669 5670 5675 5682 5688 5693 5696 5698 5702 5705 5707 5709 5712 5714 5716 5717 5718 5719 5721 5721 5721 5721 5720 5720 5719 5719 5719
5671 5668 5664 5661 5659 5659 5657 5655 5654 5655 5654 5654 5654 5657 5659 5660 5662 5664 5666 5670 5676 5683 5688 5691 5695 5699 5701 5704 5707 5710 5711 5713 5715 5717 5718 5719 5720 5720 5719 5719 5720 5719 5719
5669 5665 5661 5656 5655 5652 5650 5649 5648 5647 5647 5645 5644 5647 5650 5652 5654 5655 5657 5661 5665 5673 5678 5684 5688 5690 5694 5696 5699 5703 5705 5709 5711 5714 5716 5717 5718 5718 5719 5719 5720 5720 5720
5664 5658 5654 5651 5649 5646 5645 5643 5642 5641 5639 5637 5637 5637 5638 5642 5645 5646 5648 5650 5654 5661 5669 5674 5678 5680 5683 5686 5691 5695 5700 5704 5707 5710 5713 5715 5716 5718 5718 5719 5720 5720 5720
5658 5655 5650 5646 5643 5640 5637 5634 5635 5632 5631 5629 5630 5630 5629 5633 5634 5636 5639 5641 5642 5646 5655 5664 5666 5670 5673 5677 5682 5688 5694 5698 5702 5706 5708 5712 5714 5716 5718 5719 5719 5720 5720
5651 5648 5645 5641 5638 5635 5631 5627 5626 5625 5622 5620 5619 5617 5617 5621 5624 5626 5629 5632 5635 5638 5644 5653 5657 5662 5665 5669 5675 5680 5687 5692 5696 5700 5704 5708 5711 5714 5716 5718 5719 5719 5719
5646 5643 5639 5635 5632 5629 5625 5621 5618 5616 5613 5611 5610 5609 5608 5608 5611 5615 5619 5622 5626 5630 5633 5642 5649 5654 5656 5660 5667 5673 5679 5685 5690 5694 5699 5704 5708 5711 5714 5716 5717 5718 5719
5642 5638 5634 5630 5626 5623 5619 5614 5611 5608 5605 5603 5601 5600 5599 5600 5601 5602 5606 5611 5616 5620 5624 5629 5637 5644 5648 5653 5659 5665 5672 5679 5684 5689 5693 5698 5703 5707 5710 5713 5715 5716 5717
5637 5632 5628 5624 5619 5616 5611 5607 5603 5600 5597 5595 5593 5592 5591 5591 5591 5594 5596 5600 5606 5611 5616 5622 5628 5635 5641 5647 5651 5657 5664 5670 5676 5682 5687 5692 5697 5701 5705 5708 5711 5713 5714
5631 5626 5621 5617 5612 5609 5605 5600 5596 5593 5590 5588 5586 5585 5584 5584 5584 5584 5587 5589 5593 5599 5606 5612 5620 5627 5633 5639 5643 5649 5655 5661 5668 5674 5680 5685 5690 5694 5699 5703 5706 5708 5710
5625 5620 5615 5610 5605 5602 5599 5595 5589 5586 5583 5581 5580 5578 5578 5577 5576 5575 5578 5583 5586 5590 5597 5605 5611 5619 5626 5631 5637 5643 5647 5653 5659 5667 5672 5677 5683 5687 5691 5695 5699 5702 5704
5619 5613 5608 5603 5599 5596 5591 5582 5576 5575 5575 5574 5573 5572 5571 5570 5569 5566 5566 5568 5570 5577 5586 5593 5602 5609 5616 5624 5630 5635 5639 5643 5650 5659 5663 5667 5675 5679 5685 5689 5694 5697 5699
5613 5607 5601 5597 5593 5588 5581 5574 5567 5564 5567 5568 5567 5565 5566 5568 5564 5564 5563 5561 5563 5565 5569 5576 5588 5597 5607 5614 5620 5628 5632 5636 5643 5651 5654 5657 5663 5668 5674 5680 5685 5689 5693
5607 5601 5596 5591 5586 5582 5575 5568 5561 5559 5561 5562 5561 5560 5558 5558 5557 5556 5557 5560 5562 5565 5567 5569 5577 5587 5594 5602 5610 5617 5624 5629 5635 5641 5646 5648 5652 5656 5661 5668 5674 5679 5684
5601 5595 5591 5586 5581 5577 5570 5562 5554 5557 5560 5559 5557 5556 5553 5552 5549 5544 5544 5548 5553 5558 5561 5565 5570 5576 5581 5589 5596 5605 5615 5621 5626 5631 5637 5641 5643 5646 5650 5656 5661 5668 5673
5595 5590 5586 5581 5577 5573 5567 5558 5550 5553 5557 5556 5554 5551 5547 5543 5539 5534 5535 5539 5543 5549 5553 5561 5563 5567 5573 5580 5586 5594 5606 5614 5619 5624 5628 5633 5634 5637 5639 5643 5650 5656 5662